www.pogodaiklimat.ru

Погода и климат >> Архив погоды >> Россия >> Якутия >> Джалинда


ПОГОДА в Джалинде

  • Прогноз погоды в Джалинде
  • Монитор погоды в Джалинде
  • Климат города

АРХИВ ПОГОДЫ в Джалинде

Время (UTC), дата Ветер
(напр.,м/с)
 
Видим.   Явления Облачность Т
(С)
Тd
(С)
f
(%)
Тe
(С)
Тes
(С)
Комфортность P
(гПа)
Po
(гПа)
Тmin
(С)
Tmax
(С)
R
(мм)
R24
(мм)
S
(см)
06 12.08 ЮВ 1 50 км {морось} 10/8 600 м
[Frnb Ci sp]
+15.2 +14.3 94 +16 +17 1001.6 994.3
09 12.08 Ю 1 50 км 4/3 600 м
[Cb cap Ci sp]
+19.7 +16.9 84 +23 +25 комфорт 1003.4 996.2
12 12.08 штиль 0 50 км 3/0
[Ci sp]
+21.5 +12.4 56 +24 +24 комфорт 1004.7 997.5 +22.1 0.3
15 12.08 штиль 0 50 км 3/0
[Ci sp]
+15.1 +11.6 80 +15 +15 1006.2 997.9
18 12.08 штиль 0 50 км 3/0
[Ci sp]
+10.0 +8.4 90 +9 +9 1007.7 1000.2
21 12.08 штиль 0 50 км 8/3 600 м
[Sc Ac trans Ci sp]
+8.3 +7.0 92 +7 +7 1009.5 1001.9
00 13.08 штиль 0 50 км 9/3 600 м
[Sc As op]
+12.1 +10.8 92 +11 +12 1010.2 1002.7 +8.3
03 13.08 штиль 0 50 км 9/0
[Ac trans Ci sp]
+17.0 +13.5 80 +17 +22 1010.4 1003.1
06 13.08 Ю 1 50 км 9/0
[Ac trans]
+21.1 +12.7 59 +23 +27 комфорт 1010.1 1002.9
09 13.08 Ю 1 20 км слабый дождь 10/8 600 м
[Frnb As op]
+20.4 +14.2 68 +24 +24 комфорт 1007.9 1000.7
12 13.08 штиль 0 50 км {дождь} 10/8 600 м
[Sc Ci sp]
+18.1 +14.5 79 +18 +18 1006.3 999.0 +21.4 0.0
15 13.08 Ю 1 50 км 9/0
[As op]
+15.4 +13.6 89 +16 +16 1004.8 997.5
18 13.08 штиль 0 50 км 10/10
[Cu med, cong]
+15.3 +14.4 94 +15 +15 1002.3 995.0
21 13.08 штиль 0 50 км 10/0
[As op]
+14.9 +14.0 94 +15 +15 1005.5 998.2
00 14.08 СЗ 3 50 км 10/0
[As op]
+17.0 +13.8 81 +17 +17 1008.2 1000.9 +14.9
03 14.08 СЗ 5 50 км 8/8 600 м
[Sc]
+15.1 +11.6 80 +14 +14 1010.6 1003.3
06 14.08 50 км н/о +12.3 +9.2 81 +10 +10 1013.4 1005.9
09 14.08 С 3 50 км 10/10 600 м
[Sc]
+11.4 +8.4 82 +10 +10 1014.4 1006.9
12 14.08 штиль 0 50 км 10/0
[As op]
+11.1 +8.3 83 +10 +10 1014.0 1006.5 +17.0
15 14.08 С 1 20 км слабый дождь 10/6 600 м
[Frnb As op]
+9.8 +7.7 87 +9 +9 1013.4 1005.9
18 14.08 штиль 0 20 км слабый дождь 10/8 600 м
[Frnb As op]
+8.6 +7.1 90 +8 +8 1012.9 1005.4
21 14.08 СВ 5 20 км слабый дождь 10/8 600 м
[Frnb As op]
+5.6 +4.9 95 +1 +1 1009.5 1001.9
00 15.08 СВ 3 20 км слабый дождь 10/8 600 м
[Frnb As op]
+6.2 +5.8 97 +3 +3 1009.0 1001.4 +5.6 5
03 15.08 СВ 3 20 км слабый дождь 10/8 600 м
[Frnb As op]
+6.5 +6.1 97 +3 +3 1008.2 1000.6
06 15.08 С 5 20 км слабый дождь 10/8 600 м
[Frnb As op]
+6.5 +5.8 95 +2 +2 1009.3 1001.7
09 15.08 С 5 50 км {дождь} 10/10 600 м
[Sc]
+6.4 +5.5 94 +2 +2 1012.5 1004.9
12 15.08 СЗ 1 50 км {дождь} 9/9 600 м
[Sc]
+6.4 +5.5 94 +5 +5 1014.8 1007.1 +6.6 2
15 15.08 штиль 0 50 км 9/9 600 м
[Sc]
+6.2 +5.3 94 +5 +5 1015.4 1007.7
18 15.08 штиль 0 50 км 9/9 600 м
[Sc]
+5.4 +4.5 94 +4 +4 1015.9 1008.2
21 15.08 штиль 0 50 км 3/3 600 м
[Sc Ci fib]
+3.2 +2.7 97 +2 +2 1016.0 1008.2
00 16.08 штиль 0 50 км 8/8 600 м
[Sc]
+7.1 +3.8 80 +6 +7 1016.0 1008.3 +3.2
03 16.08 50 км 4/4 600 м
[Cu hum]
+11.1 +3.9 61 1015.3 1007.8
06 16.08 Ю 1 50 км 8/8 600 м
[Sc]
+13.5 +4.9 56 +14 +15 1014.0 1006.6
09 16.08 Ю 3 50 км 5/5 600 м
[Sc]
+15.6 +5.1 50 +15 +16 1011.2 1003.9
12 16.08 штиль 0 50 км 4/3 600 м
[Sc Ci fib]
+14.6 +9.8 73 +14 +14 1011.1 1003.8 +15.8
15 16.08 штиль 0 50 км 3/0
[Ci fib]
+8.3 +7.5 95 +7 +7 1011.5 1003.9
18 16.08 штиль 0 50 км ясно +6.4 +4.8 89 +5 +5 1012.2 1004.6
21 16.08 штиль 0 50 км ясно +4.3 +3.8 97 +3 +3 1013.1 1005.4
00 17.08 ЮВ 1 50 км 3/0
[Ci fib]
+9.4 +5.9 79 +9 +12 1013.2 1005.7 +4.3
03 17.08 ЮВ 1 50 км 3/0
[Ci sp]
+15.9 +9.1 64 +17 +23 1011.4 1004.1
06 17.08 ЮЗ 3 50 км 4/4 600 м
[Cu hum]
+19.5 +8.1 48 +21 +23 комфорт 1010.1 1002.9
09 17.08 Ю 1 50 км 6/4 600 м
[Cu hum Ci sp]
+20.0 +6.8 42 +22 +23 комфорт 1008.5 1001.3
12 17.08 штиль 0 50 км 9/9 600 м
[Sc]
+17.5 +7.9 53 +18 +18 1008.6 1001.3 +20.3
15 17.08 штиль 0 50 км 9/9 600 м
[Sc]
+15.3 +9.5 68 +15 +15 1008.6 1001.3
18 17.08 штиль 0 50 км 10/0
[As op]
+14.5 +9.2 70 +14 +14 1007.9 1000.6
21 17.08 штиль 0 50 км 10/0
[As op]
+12.7 +10.0 84 +12 +12 1006.8 999.3
00 18.08 штиль 0 20 км слабая морось 10/8 600 м
[Frnb As op]
+12.0 +10.7 92 +12 +12 1007.0 999.5 +12.0 0.0
03 18.08 С 1 20 км слабая морось 10/10 300 м
[Frnb]
+10.9 +10.7 99 +10 +10 1007.4 999.9
06 18.08 С 1 20 км дождь {морось} 10/10 300 м
[Frnb]
+9.9 +9.7 99 +9 +9 1008.2 1000.7
09 18.08 штиль 0 50 км {морось, дождь} 10/10 600 м
[Sc]
+10.0 +9.2 95 +9 +9 1010.5 1003.0
12 18.08 штиль 0 50 км {морось, дождь} 9/9 600 м
[Sc]
+10.0 +9.2 95 +9 +9 1010.8 1003.3 +12.0 1
15 18.08 штиль 0 50 км 10/0
[As op]
+8.8 +8.2 96 +8 +8 1010.9 1003.3
18 18.08 штиль 0 50 км 10/0
[As op]
+6.4 +5.7 95 +5 +5 1010.6 1003.0
21 18.08 штиль 0 50 км 3/3 600 м
[Sc]
+4.6 +4.4 99 +3 +3 1011.8 1004.2
00 19.08 С 1 50 км 9/9 600 м
[Sc]
+7.6 +6.3 91 +7 +7 1012.1 1004.5 +4.6

 

Местоположение метеостанции Джалинда (Якутия, Россия): широта 70.13 долгота 113.90 высота над уровнем моря 62 м.

В архиве по умолчанию представлена погода в Джалинде за последнюю неделю. Архивные данные за месяц целиком и за предыдущие месяцы, начиная с января 2011 года, Вы можете получить, выбрав интересующий диапазон дат из раскрывающегося списка и нажав кнопку "Ввод!".

Внимание! Время в таблицах - всемирное. Для получения местного времени необходимо прибавить поправку, которая в Джалинде равна 9 ч.

Смотрите также архив погоды в соседних городах и на ближайших метеорологических станциях:

Погода в Оленеке (Якутия, Россия) (191 км)
Погода в Саскылахе (Якутия, Россия) (205 км)
Погода в Сухане (Якутия, Россия) (241 км)
Погода в Анабаре (Якутия, Россия) (344 км)
Погода в Усть-Оленеке (Якутия, Россия) (380 км)
Погода в Полярном (Якутия, Россия) (383 км)
Погода в Ярольине (Якутия, Россия) (399 км)
Погода в Тюмяти (Якутия, Россия) (400 км)
Погода в Джарджане (Якутия, Россия) (424 км)
Погода в Шелагонцах (Якутия, Россия) (432 км)

Пояснения к столбцам:

Ветер - указаны скорость ветра в м/с - средняя за 10 мин, порывы в срок и между сроками (в фигурных скобках) и направление, откуда дует ветер: С - северный, СВ - северо-восточный, В - восточный, ЮВ - юго-восточный, Ю - южный, ЮЗ - юго-западный, З - западный, СЗ - северо-западный.
Видимость - горизонтальная дальность видимости в метрах или километрах. При видимости от 1 до 10 км при отсутствии осадков обычно наблюдается дымка, при ухудшении видимости до 1 км и менее - туман. В сухую погоду видимость может ухудшаться дымом, пылью или мглою.
Явления - указаны атмосферные явления, наблюдавшиеся в срок или в последний час перед сроком; фигурными скобками обозначены явления, наблюдавшиеся между сроками (за 1-3 часа до срока); квадратными скобками обозначены град или гололедные отложения с указанием их диаметра в мм.
Облачность - указаны через наклонную черту общая и нижняя облачность в баллах и высота нижней границы облаков в метрах; квадратными скобками обозначены формы облаков: Ci - перистые, Cs - перисто-слоистые, Cc - перисто-кучевые, Ac - высококучевые, As - высокослоистые, Sc - слоисто-кучевые, Ns - слоисто-дождевые, Cu - кучевые, Cb - кучево-дождевые. Подробнее классификацию облаков см. в Атласе облаков (PDF).
T - Температура воздуха - температура, измеренная на высоте 2 м над землей.
Td - Температура точки росы - температура, при понижении до которой содержащийся в воздухе водяной пар достигнет насыщения.
f - Относительная влажность воздуха - влажноcть воздуха, измеренная на высоте 2 м над землей.
Te - Эффективная температура - температура, которую ощущает одетый по сезону человек в тени. Характеристика душности погоды. При расчете учитывается влияние влажности воздуха и скорости ветра на теплоощущения человека.
Tes - Эффективная температура на солнце - температура, которую ощущает человек, с поправкой на солнечный нагрев. Характеристика знойности погоды. Зависит от высоты солнца над горизонтом, облачности и скорости ветра. Ночью, в пасмурную погоду, а также при ветре 12 м/с и более поправка равна нулю.
P - Атмосферное давление - приведенное к уровню моря атмосферное давление.
Po - Атмосферное давление - измеренное на уровне метеостанции атмосферное давление.
Tmin - Минимальная температура - минимум температуры воздуха на высоте 2 м над землей.
Tmax - Максимальная температура - максимум температуры воздуха на высоте 2 м над землей.
R - Количество осадков - Количество выпавших осадков за период времени, мм. При наведении курсора мыши на число - период времени, за который выпало указанное количество осадков.
R24 - Количество осадков - Количество выпавших осадков за 24 часа, мм.
S - Снежный покров - Высота снежного покрова, см. При наведении курсора мыши на число - состояние снежного покрова и степень покрытия местности в баллах.